Home > Weather > Rust > Past weeks

Flag for Austria Past Weather in Rust, Burgenland, Austria — Yesterday and Last 2 Weeks

Now
59 °F

Clear.


Feels Like: 60 °F
Forecast: 54 / 78 °F
Wind: 3 mph from North

Location: Eisenstadt

Current Time: May 27, 2016 at 12:40:17 AM

Latest Report: May 26, 2016 at 11:00 PM


Visibility: 6 mi

Pressure: 30.01 "Hg

Humidity: 84%

Dew Point: 54 °F

Location of RustLocation

Past Weather in Rust — Graph

°F

Rust Temperature Yesterday

Maximum temperature yesterday: 75 °F (at 6:00 PM)
Minimum temperature yesterday: 56 °F (at 3:00 AM)
Average temperature yesterday: 65 °F

High & Low Weather Summary for the Past Weeks

 TemperatureHumidityPressure
High80 °F (May 23, 4:00 PM)97% (May 12, 5:00 AM)30.13 "Hg (May 12, 5:00 AM)
Low45 °F (May 16, 5:00 AM)35% (May 17, 2:00 PM)29.32 "Hg (May 13, 5:00 AM)
Average59 °F66%29.85 "Hg
* Reported May 11 11:00 PM — May 26 11:00 PM, Rust, Weather by CustomWeather, © 2016

Note: Actual official high and low records may vary slightly from our data, if they occured in-between our weather recording intervals... More about our weather records

Advertising

Rust Weather History for the Previous 24 Hours

Scroll right to see more
 ConditionsComfort  
Time TempWeatherWind HumidityBarometerVisibility
11:00 PM
Thu, May 26
59 °FClear.3 mph84%30.01 "Hg6 mi
10:00 PM61 °FCool.3 mph82%30.01 "HgN/A
9:00 PM64 °FMild.2 mph78%29.99 "HgN/A
8:00 PM69 °FPassing clouds.2 mph69%29.98 "Hg9 mi
7:00 PM73 °FMild.1 mph51%29.96 "HgN/A
6:00 PM75 °FMild.3 mph49%29.96 "HgN/A
5:00 PM74 °FPassing clouds.2 mph49%29.96 "Hg9 mi
4:00 PM74 °FMild.3 mph50%29.96 "HgN/A
3:00 PM73 °FMild.5 mph50%29.98 "HgN/A
2:00 PM72 °FPassing clouds.6 mph55%29.98 "Hg9 mi
1:00 PM71 °FMild.3 mph61%29.98 "HgN/A
12:00 PM69 °FMild.5 mph64%29.99 "HgN/A
11:00 AM68 °FPassing clouds.3 mph67%29.99 "Hg9 mi
10:00 AM65 °FMild.1 mph70%29.99 "HgN/A
9:00 AM64 °FMild.No wind72%29.99 "HgN/A
8:00 AM61 °FPartly sunny.5 mph78%29.98 "Hg9 mi
7:00 AM60 °FOvercast.7 mph79%29.96 "Hg9 mi
6:00 AM59 °FPassing clouds.5 mph80%29.96 "Hg9 mi
5:00 AM60 °FCool.7 mph77%29.93 "HgN/A
4:00 AM60 °FCool.6 mph76%29.94 "HgN/A
3:00 AM56 °FCool.1 mph85%29.93 "HgN/A
2:00 AM58 °FClear.2 mph83%29.93 "Hg9 mi
1:00 AM59 °FCool.1 mph79%29.93 "HgN/A
12:00 AM61 °FCool.6 mph75%29.93 "HgN/A
Weather by CustomWeather, © 2016

See weather overviewHow to use our weather pages